Tracking 25620 objects as of 18-May-2022
HD Live streaming from Space Station
objects crossing your sky now

STARLINK-1169

Track STARLINK-1169 now!
10-day predictions
STARLINK-1169 is classified as:


NORAD ID: 45061
Int'l Code: 2020-006T
Perigee: 553.2 km
Apogee: 555.6 km
Inclination: 53.1 °
Period: 95.6 minutes
Semi major axis: 6925 km
RCS: Unknown
Launch date: January 29, 2020
Source: United States (US)
Launch site: AIR FORCE EASTERN TEST RANGE (AFETR)
aabbcc
Your satellite tracking list
Your tracking list is empty




NASA's NSSDC Master Catalog

Two Line Element Set (TLE):
1 45061U 20006T   22138.20572768  .00000060  00000-0  22954-4 0  9999
2 45061  53.0548  53.2372 0001735  59.1271 300.9888 15.06391839126736
Source of the keplerian elements: AFSPC